www.pogodaiklimat.ru

Погода и климат >> Архив погоды >> Россия >> Еврейская автономная область >> Облучье


ПОГОДА в Облучье

  • Прогноз погоды в Облучье
  • Монитор погоды в Облучье

АРХИВ ПОГОДЫ в Облучье

Время (UTC), дата Ветер
(напр.,м/с)
 
Видим.   Явления Облачность Т
(С)
Тd
(С)
f
(%)
Тe
(С)
Тes
(С)
Комфортность P
(гПа)
Po
(гПа)
Тmin
(С)
Tmax
(С)
R
(мм)
R24
(мм)
S
(см)
09 18.06 З 2 50 км 8/3 1000 м
[Cu hum Ci fib]
+20.9 +9.1 47 +23 +25 комфорт 1001.8 971.6 +21.9
12 18.06 С 1 20 км 10/0
[As trans Cs]
+11.7 +10.2 91 +11 +11 1002.5 971.4
15 18.06 С 2 20 км 10/0
[As trans Cs]
+11.0 +9.9 93 +10 +10 1001.2 970.1
18 18.06 С 1 20 км 10/6 600 м
[Cb cap As trans]
+10.5 +9.9 96 +10 +10 999.4 968.3
21 18.06 штиль 0 20 км в посл. час ливневой дождь 10/10 600 м
[Cb cap]
+10.6 +10.1 97 +10 +10 998.5 967.4 +10.0 0.5
00 19.06 Ю 1 20 км слаб. ливневой дождь 10/10 600 м
[Cb cap]
+15.0 +12.7 86 +15 +15 997.7 967.1
03 19.06 СЗ 1 10 км ливневой дождь 10/10 600 м
[Cb cap]
+10.3 +8.7 90 +10 +10 1000.5 969.3
06 19.06 Ю 1 50 км {ливн. осадки} 9/8 600 м
[Cb cap Ci fib]
+13.5 +10.6 83 +14 +16 999.8 968.9
09 19.06 СЗ 2 50 км 8/5 600 м
[Cb cap Ci fib]
+13.2 +5.9 61 +13 +14 1000.9 969.9 +16.2 6
12 19.06 штиль 0 50 км 6/3 600 м
[Cb cap Ci fib]
+8.5 +7.0 90 +8 +8 1002.2 970.7
15 19.06 штиль 0 20 км 8/4 600 м
[Cb cap Ci fib]
+6.5 +5.9 96 +5 +5 1003.3 971.6
18 19.06 С 1 20 км 10/6 600 м
[Cb cap Ac As]
+6.8 +6.3 97 +6 +6 1003.1 971.4
21 19.06 штиль 0 10 км ливневой дождь 10/10 600 м
[Cb cap]
+7.5 +7.1 97 +6 +6 1004.9 973.2 +5.7 2
00 20.06 С 1 10 км слаб. дождь 10/8 600 м
[Frnb As op]
+10.3 +9.7 96 +10 +10 1005.5 974.1
03 20.06 штиль 0 20 км в посл. час дождь 10/8 600 м
[St As op]
+13.5 +11.9 90 +13 +14 1005.7 974.7
06 20.06 СЗ 1 20 км {дождь} 10/6 600 м
[Cb cap Ac As Ci fib]
+16.4 +12.7 79 +17 +20 1006.4 975.7
09 20.06 З 1 50 км 8/8 600 м
[Cb cap]
+19.4 +13.9 70 +22 +23 комфорт 1006.1 975.7 +20.0 7
12 20.06 штиль 0 20 км 6/6 1000 м
[Sc]
+12.7 +12.1 96 +12 +12 1008.9 977.7
15 20.06 СЗ 1 20 км ясно +10.5 +10.2 98 +10 +10 1010.1 978.6
18 20.06 С 2 20 км 3/0
[Ac lent]
+9.0 +8.7 98 +7 +7 1010.6 978.9
21 20.06 С 2 20 км 8/0
[Ac lent Ci fib]
+9.4 +9.0 97 +8 +8 1011.2 979.6 +8.0
00 21.06 ЮВ 1 50 км 10/3 600 м
[Cb cap Cs]
+19.8 +13.2 66 +23 +30 комфорт 1009.9 979.5
03 21.06 СЗ 2 50 км 10/4 600 м
[Cb cap Ac trans Ci fib]
+22.8 +15.0 61 +27 +32 душно 1008.7 978.5
06 21.06 СЗ 1 10 км гроза, ливневой дождь 10/8 600 м
[Cb cap Ci fib]
+15.9 +14.3 90 +17 +19 1009.2 978.3
09 21.06 штиль 0 50 км {гроза, ливн. осадки} 10/9 600 м
[Cb cap Ci fib]
+19.3 +15.2 77 +21 +21 комфорт 1009.0 978.5 +23.1 9
12 21.06 штиль 0 20 км {гроза, ливн. осадки} 10/10 600 м
[Cb cap]
+14.4 +13.3 93 +14 +14 1009.9 978.9
15 21.06 С 1 20 км 8/6 600 м
[Cb cap Ci fib]
+11.9 +11.4 97 +12 +12 1010.7 979.3
18 21.06 С 1 20 км 3/3 1000 м
[Sc]
+9.5 +9.1 97 +9 +9 1011.1 979.4
21 21.06 С 2 20 км ясно +10.6 +9.6 94 +9 +11 1011.3 979.8 +9.0 0.0
00 22.06 Ю 1 50 км 3/0
[Ci fib]
+21.0 +13.2 61 +25 +37 комфорт 1010.4 980.0
03 22.06 СЗ 2 50 км 8/8 600 м
[Cb cap]
+24.4 +14.0 52 +27 +30 жарко 1009.4 979.4
06 22.06 З 1 50 км {ливн. осадки} 6/6 1000 м
[Cu hum]
+25.1 +13.3 48 +27 +33 жарко 1008.0 978.1
09 22.06 З 2 50 км 8/6 1000 м
[Sc Ci fib]
+25.2 +14.3 51 +28 +29 жарко 1007.4 977.6 +26.7 0.0
12 22.06 С 1 20 км 3/0
[Ac trans]
+16.7 +15.1 90 +18 +18 1009.5 978.7
15 22.06 С 2 20 км ясно +14.6 +13.6 94 +14 +14 1009.8 978.8
18 22.06 С 2 20 км ясно +12.5 +11.8 95 +11 +11 1009.7 978.4
21 22.06 СВ 1 50 км ясно +12.9 +11.6 92 +13 +15 1010.2 979.0 +11.6
00 23.06 штиль 0 50 км 8/0
[Ci fib]
+23.2 +14.3 57 +27 +39 душно 1008.8 978.7
03 23.06 З 2 50 км 8/4 600 м
[Cb cap Ci fib]
+26.6 +14.3 47 +29 +38 жарко 1007.6 977.8
06 23.06 ЮЗ 2 50 км 6/3 600 м
[Cb cap Ci fib]
+27.6 +12.9 40 +29 +37 жарко 1006.5 976.9
09 23.06 ЮЗ 1 50 км 10/0
[Ci fib]
+25.6 +15.7 54 +29 +31 душно 1006.4 976.6 +28.2
12 23.06 С 1 50 км 10/0
[Ci fib]
+18.1 +15.9 87 +19 +19 1008.2 977.6
15 23.06 С 1 20 км 10/0
[Cs]
+15.7 +14.8 94 +16 +16 1008.8 977.9
18 23.06 С 1 20 км 10/6 600 м
[Cb cap Cs]
+15.1 +14.3 95 +16 +16 1008.8 977.9
21 23.06 С 1 50 км 8/3 1000 м
[Sc Ac cast]
+15.9 +14.8 93 +17 +17 1009.1 978.3 +14.2
00 24.06 ЮВ 2 50 км 10/0
[Ci fib]
+23.7 +16.5 64 +27 +36 жарко 1007.6 977.6
03 24.06 Ю 2 50 км 10/8 600 м
[Cb cap Ci fib]
+26.3 +15.2 50 +29 +32 жарко 1006.0 976.3
06 24.06 Ю 3 50 км 10/4 600 м
[Cb cap As trans]
+26.2 +16.4 55 +30 +32 душно 1004.5 974.8
09 24.06 Ю 3 50 км 10/3 1000 м
[Sc Ac trans Ci fib]
+27.2 +16.3 51 +31 +31 душно 1004.0 974.5 +27.7
12 24.06 штиль 0 20 км 10/0
[Ac cast Cs]
+19.6 +17.2 86 +22 +22 комфорт 1005.4 975.1
15 24.06 штиль 0 20 км 10/0
[As op]
+19.0 +17.4 90 +20 +20 1004.9 974.6
18 24.06 штиль 0 20 км в посл. час ливневой дождь {гроза} 10/10 600 м
[Cb cap]
+18.3 +17.8 97 +19 +19 1005.9 975.5
21 24.06 Ю 2 10 км ливневой дождь {гроза} 10/10 600 м
[Cb cap]
+18.3 +17.9 98 +19 +19 1006.4 976.0 +17.7 19
00 25.06 СЗ 1 20 км {гроза, ливн. осадки} 10/8 600 м
[Cb cap Ci fib]
+20.3 +18.4 89 +25 +27 комфорт 1006.2 975.9
03 25.06 С 2 20 км в посл. час ливневой дождь 10/10 600 м
[Cb cap]
+20.6 +18.3 87 +25 +25 комфорт 1006.3 976.1
06 25.06 З 1 20 км {ливн. осадки} 10/10 600 м
[Cb cap]
+23.7 +18.6 73 +28 +28 душно 1005.0 975.1

 

Местоположение метеостанции Облучье (Еврейская автономная область, Россия): широта 49.00 долгота 131.00 высота над уровнем моря 267 м.

В архиве по умолчанию представлена погода в Облучье за последнюю неделю. Архивные данные за месяц целиком и за предыдущие месяцы, начиная с января 2011 года, Вы можете получить, выбрав интересующий диапазон дат из раскрывающегося списка и нажав кнопку "Ввод!".


*Определитесь, кто Вы:
робот инопланетянин человек

Внимание! Время в таблицах - всемирное. Для получения местного времени необходимо прибавить поправку, которая равна 10 ч.

Смотрите также архив погоды в соседних городах и на ближайших метеорологических станциях:

Погода в Архаре (Амурская область, Россия) (86 км)
Погода в Малиновке (Амурская область, Россия) (118 км)
Погода в Биджане (Еврейская автономная область, Россия) (133 км)
Погода в Екатерино-Никольском (Еврейская автономная область, Россия) (139 км)
Погода в Биробиджане (Еврейская автономная область, Россия) (142 км)
Погода в Сутуре (Хабаровский край, Россия) (143 км)
Погода в Сектагли (Хабаровский край, Россия) (159 км)
Погода в Урми (Хабаровский край, Россия) (166 км)
Погода в Ленинское (Еврейская автономная область, Россия) (166 км)
Погода в Завитае (Амурская область, Россия) (170 км)

Пояснения к столбцам:

Ветер - указаны скорость ветра в м/с - средняя за 10 мин, порывы в срок и между сроками (в фигурных скобках) и направление, откуда дует ветер: С - северный, СВ - северо-восточный, В - восточный, ЮВ - юго-восточный, Ю - южный, ЮЗ - юго-западный, З - западный, СЗ - северо-западный.
Видимость - горизонтальная дальность видимости в метрах или километрах. При видимости от 1 до 10 км при отсутствии осадков обычно наблюдается дымка, при ухудшении видимости до 1 км и менее - туман. В сухую погоду видимость может ухудшаться дымом, пылью или мглою.
Явления - указаны атмосферные явления, наблюдавшиеся в срок или в последний час перед сроком; фигурными скобками обозначены явления, наблюдавшиеся между сроками (за 1-3 часа до срока); квадратными скобками обозначены град или гололедные отложения с указанием их диаметра в мм.
Облачность - указаны через наклонную черту общая и нижняя облачность в баллах и высота нижней границы облаков в метрах; квадратными скобками обозначены формы облаков: Ci - перистые, Cs - перисто-слоистые, Cc - перисто-кучевые, Ac - высококучевые, As - высокослоистые, Sc - слоисто-кучевые, Ns - слоисто-дождевые, Cu - кучевые, Cb - кучево-дождевые. Подробнее классификацию облаков см. в Атласе облаков (PDF).
T - Температура воздуха - температура, измеренная на высоте 2 м над землей.
Td - Температура точки росы - температура, при понижении до которой содержащийся в воздухе водяной пар достигнет насыщения.
f - Относительная влажность воздуха - влажноcть воздуха, измеренная на высоте 2 м над землей.
Te - Эффективная температура - температура, которую ощущает одетый по сезону человек в тени. Характеристика душности погоды. При расчете учитывается влияние влажности воздуха и скорости ветра на теплоощущения человека.
Tes - Эффективная температура на солнце - температура, которую ощущает человек, с поправкой на солнечный нагрев. Характеристика знойности погоды. Зависит от высоты солнца над горизонтом, облачности и скорости ветра. Ночью, в пасмурную погоду, а также при ветре 12 м/с и более поправка равна нулю.
P - Атмосферное давление - приведенное к уровню моря атмосферное давление.
Po - Атмосферное давление - измеренное на уровне метеостанции атмосферное давление.
Tmin - Минимальная температура - минимум температуры воздуха на высоте 2 м над землей.
Tmax - Максимальная температура - максимум температуры воздуха на высоте 2 м над землей.
R - Количество осадков - Количество выпавших осадков за период времени, мм. При наведении курсора мыши на число - период времени, за который выпало указанное количество осадков.
R24 - Количество осадков - Количество выпавших осадков за 24 часа, мм.
S - Снежный покров - Высота снежного покрова, см. При наведении курсора мыши на число - состояние снежного покрова и степень покрытия местности в баллах.